Pittsfield, IL

9:13 AM CDT on September 20, 2017 (GMT -0500)
Pittsfield Penstone Municipal

Weather History for KPPQ - February, 2014

Change the Weather History Date:

Thursday, February 20, 2014

  Actual Average (KUIN) Record (KUIN)
Temperature  
Mean Temperature 50 °F -  
Max Temperature 64 °F 42 °F 77 °F (2017)
Min Temperature 37 °F 25 °F -3 °F (1929)
Degree Days  
Heating Degree Days 14    
Moisture  
Dew Point 38 °F    
Average Humidity 81    
Maximum Humidity 93    
Minimum Humidity 70    
Precipitation  
Precipitation 0.10 in - - ()
Sea Level Pressure  
Sea Level Pressure 29.54 in    
Wind  
Wind Speed 12 mph (SSE)    
Max Wind Speed 33 mph    
Max Gust Speed 46 mph    
Visibility 9 miles    
Events Rain , Thunderstorm    
Averages and records for this station are not official NWS values.
T = Trace of Precipitation, MM = Missing Value Source: NWS Daily Summary

Daily Weather History Graph

Daily Weather History Graph

Search for Another Location

Airport or City:

Trip Planner

Search our weather history database for the weather conditions in past years. The results will help you decide how hot, cold, wet, or windy it might be!

Date:

Astronomy

Feb. 20, 2014 Rise Set
Actual Time 6:48 AM CST 5:45 PM CST
Civil Twilight 6:21 AM CST 6:12 PM CST
Nautical Twilight 5:50 AM CST 6:44 PM CST
Astronomical Twilight 5:19 AM CST 7:15 PM CST
Moon 11:38 PM CST 9:32 AM CST
Length of Visible Light 11h 51m
Length of Day
10h 56m
Waning Gibbous, 70% of the Moon is Illuminated
Feb 20
Waning Gibbous
Feb 22
Last Quarter
Mar 1
New
Mar 8
First Quarter
Mar 16
Full

Hourly Weather History & Observations

Time (CST) Temp. Windchill Dew Point Humidity Pressure Visibility Wind Dir Wind Speed Gust Speed Precip Events Conditions
12:15 AM 39.9 °F 32.5 °F 35.8 °F 85% 29.74 in 10.0 mi East 12.7 mph - 0.03 in Rain , Thunderstorm Light Thunderstorms and Rain
12:35 AM 40.1 °F 32.7 °F 35.6 °F 84% 29.71 in 10.0 mi ESE 12.7 mph - 0.03 in   Overcast
12:55 AM 39.7 °F 33.2 °F 35.2 °F 84% 29.69 in 10.0 mi East 10.4 mph - 0.03 in   Overcast
1:15 AM 38.7 °F 32.4 °F 35.1 °F 87% 29.68 in 10.0 mi East 9.2 mph - N/A Thunderstorm Overcast
1:35 AM 38.7 °F 32.9 °F 34.9 °F 86% 29.66 in 10.0 mi ESE 8.1 mph - N/A Thunderstorm Overcast
1:55 AM 38.7 °F 31.8 °F 34.9 °F 86% 29.65 in 10.0 mi ESE 10.4 mph - N/A   Overcast
2:15 AM 39.0 °F 32.3 °F 35.1 °F 86% 29.63 in 10.0 mi ESE 10.4 mph - N/A   Mostly Cloudy
2:35 AM 40.8 °F 34.1 °F 35.6 °F 82% 29.62 in 10.0 mi SE 11.5 mph - N/A Thunderstorm Thunderstorm
2:55 AM 41.4 °F 35.2 °F 35.6 °F 80% 29.60 in 10.0 mi SE 10.4 mph - N/A   Overcast
3:15 AM 41.2 °F 35.5 °F 35.8 °F 81% 29.59 in 10.0 mi SSE 9.2 mph - N/A   Overcast
3:35 AM 41.9 °F 37.5 °F 36.3 °F 81% 29.59 in 10.0 mi SSE 6.9 mph - N/A   Overcast
3:55 AM 41.9 °F 37.5 °F 36.7 °F 82% 29.58 in 10.0 mi SSE 6.9 mph - N/A   Mostly Cloudy
4:15 AM 43.0 °F 38.8 °F 37.6 °F 81% 29.57 in 10.0 mi SSE 6.9 mph - N/A   Overcast
4:35 AM 41.4 °F 39.4 °F 36.5 °F 83% 29.58 in 10.0 mi North 3.5 mph - N/A   Overcast
4:55 AM 41.5 °F 38.6 °F 36.9 °F 83% 29.57 in 10.0 mi NNE 4.6 mph - N/A   Overcast
5:15 AM 41.7 °F 38.8 °F 36.7 °F 82% 29.55 in 10.0 mi East 4.6 mph - N/A Rain Light Rain
5:35 AM 39.0 °F 34.0 °F 36.0 °F 89% 29.55 in 10.0 mi NNE 6.9 mph - N/A   Overcast
5:55 AM 39.2 °F 35.0 °F 36.5 °F 90% 29.53 in 7.0 mi ENE 5.8 mph - 0.04 in Rain Light Rain
6:15 AM 39.2 °F 35.0 °F 36.9 °F 91% 29.53 in 7.0 mi NE 5.8 mph - 0.01 in   Mostly Cloudy
6:35 AM 38.5 °F 34.1 °F 36.5 °F 93% 29.52 in 5.0 mi NE 5.8 mph - 0.01 in   Mostly Cloudy
6:55 AM 38.5 °F 32.7 °F 36.5 °F 93% 29.50 in 4.0 mi NE 8.1 mph - 0.01 in   Mostly Cloudy
7:35 AM 37.9 °F 34.4 °F 36.1 °F 93% 29.50 in 3.0 mi East 4.6 mph - N/A   Scattered Clouds
7:55 AM 38.3 °F 34.8 °F 36.5 °F 93% 29.48 in 2.5 mi East 4.6 mph - N/A   Clear
8:15 AM 39.2 °F 37.0 °F 37.4 °F 93% 29.48 in 2.5 mi East 3.5 mph - N/A   Scattered Clouds
8:55 AM 40.6 °F 36.7 °F 38.7 °F 93% 29.48 in 3.0 mi NE 5.8 mph - N/A   Overcast
9:15 AM 41.0 °F 37.1 °F 38.8 °F 92% 29.47 in 3.0 mi ENE 5.8 mph - N/A   Overcast
9:35 AM 42.1 °F 39.2 °F 40.1 °F 93% 29.45 in 4.0 mi East 4.6 mph - N/A   Overcast
9:55 AM 43.7 °F 42.1 °F 41.7 °F 93% 29.43 in 3.0 mi ESE 3.5 mph - N/A Thunderstorm Overcast
10:15 AM 48.7 °F - 46.6 °F 92% 29.41 in 4.0 mi ESE 4.6 mph - N/A   Mostly Cloudy
10:35 AM 57.9 °F - 54.7 °F 89% 29.40 in 7.0 mi SSE 12.7 mph - N/A   Mostly Cloudy
10:55 AM 60.4 °F - 55.0 °F 82% 29.38 in 10.0 mi South 20.7 mph 26.5 mph N/A   Scattered Clouds
11:55 AM 61.9 °F - 55.4 °F 79% 29.34 in 10.0 mi South 16.1 mph 23.0 mph N/A   Mostly Cloudy
12:15 PM 62.6 °F - 55.6 °F 78% 29.32 in 10.0 mi South 19.6 mph 24.2 mph N/A   Overcast
12:35 PM 63.1 °F - 55.9 °F 77% 29.30 in 10.0 mi South 18.4 mph 25.3 mph N/A   Overcast
12:55 PM 63.0 °F - 55.4 °F 76% 29.28 in 10.0 mi South 16.1 mph 24.2 mph N/A   Overcast
1:15 PM 63.3 °F - 56.1 °F 77% 29.26 in 10.0 mi South 16.1 mph 20.7 mph N/A   Overcast
2:15 PM 64.9 °F - 55.8 °F 72% 29.16 in 10.0 mi SSE 21.9 mph 28.8 mph N/A Rain Light Rain
2:35 PM 61.2 °F - 55.6 °F 82% 29.22 in - SW 25.3 mph - 0.02 in Thunderstorm Thunderstorm
5:15 PM 41.4 °F 31.2 °F 34.7 °F 77% 29.50 in 10.0 mi WSW 25.3 mph 39.1 mph N/A   Overcast
5:35 PM 41.0 °F 30.2 °F 32.7 °F 72% 29.53 in 10.0 mi WSW 27.6 mph 44.9 mph N/A   Overcast
5:55 PM 41.0 °F 29.3 °F 32.0 °F 70% 29.54 in 10.0 mi WSW 33.4 mph 46.0 mph N/A   Overcast
6:15 PM 40.6 °F 29.6 °F 32.5 °F 73% 29.56 in 10.0 mi WSW 28.8 mph 35.7 mph N/A   Overcast
6:35 PM 40.6 °F 30.7 °F 32.4 °F 72% 29.58 in 10.0 mi West 23.0 mph 41.4 mph N/A   Overcast
6:55 PM 40.6 °F 31.4 °F 32.0 °F 71% 29.60 in 10.0 mi West 19.6 mph 40.3 mph N/A   Overcast
7:15 PM 40.1 °F 30.2 °F 31.6 °F 72% 29.63 in 10.0 mi WSW 21.9 mph 34.5 mph N/A   Mostly Cloudy
7:35 PM 39.4 °F 29.5 °F 31.5 °F 73% 29.64 in 10.0 mi WSW 20.7 mph 32.2 mph N/A   Mostly Cloudy
7:55 PM 38.7 °F 28.8 °F 30.7 °F 73% 29.66 in 10.0 mi WSW 19.6 mph 27.6 mph N/A   Scattered Clouds
8:15 PM 38.5 °F 29.6 °F 30.2 °F 72% 29.66 in 10.0 mi WSW 16.1 mph 20.7 mph N/A   Clear
8:35 PM 38.3 °F 31.4 °F 30.2 °F 73% 29.66 in 10.0 mi WSW 10.4 mph - N/A   Clear
8:55 PM 37.9 °F 29.6 °F 30.6 °F 75% 29.66 in 10.0 mi SW 13.8 mph 18.4 mph N/A   Clear
9:16 PM 37.8 °F 29.0 °F 30.9 °F 76% 29.66 in 10.0 mi SW 15.0 mph 24.2 mph N/A   Clear
9:35 PM 37.8 °F 29.0 °F 30.9 °F 76% 29.67 in 10.0 mi SW 15.0 mph 20.7 mph N/A   Scattered Clouds
9:55 PM 37.9 °F 29.2 °F 31.1 °F 76% 29.66 in 10.0 mi SW 15.0 mph 25.3 mph N/A   Scattered Clouds
10:15 PM 37.6 °F 28.8 °F 31.1 °F 77% 29.65 in 10.0 mi WSW 15.0 mph 20.7 mph N/A   Scattered Clouds
10:35 PM 37.8 °F 29.4 °F 30.9 °F 76% 29.65 in 10.0 mi WSW 13.8 mph 19.6 mph N/A   Clear
10:55 PM 37.4 °F 30.3 °F 30.7 °F 77% 29.63 in 10.0 mi WSW 10.4 mph 18.4 mph N/A   Scattered Clouds
11:15 PM 37.4 °F 29.3 °F 30.4 °F 76% 29.63 in 10.0 mi WSW 12.7 mph - N/A   Clear
11:35 PM 37.0 °F 29.3 °F 30.6 °F 77% 29.62 in 10.0 mi WSW 11.5 mph 16.1 mph N/A   Scattered Clouds
11:55 PM 37.0 °F 28.1 °F 30.2 °F 76% 29.61 in 10.0 mi WSW 15.0 mph 20.7 mph N/A   Mostly Cloudy